Madisonville, KY

4:57 AM CST on December 08, 2019 (GMT -0600)
Madisonville

Weather History for K2I0 - October, 2019

Change the Weather History Date:

Friday, October 11, 2019

  Actual Average (WUND) Record (WUND)
Temperature  
Mean Temperature 58 °F -  
Max Temperature 72 °F - - (-1)
Min Temperature 44 °F - - (-1)
Degree Days  
Heating Degree Days 6    
Growing Degree Days 8 (Base 50)    
Moisture  
Dew Point 54 °F    
Average Humidity 74    
Maximum Humidity 84    
Minimum Humidity 61    
Precipitation  
Precipitation 0.13 in - - ()
Sea Level Pressure  
Sea Level Pressure 30.03 in    
Wind  
Wind Speed 8 mph ()    
Max Wind Speed 15 mph    
Max Gust Speed 23 mph    
Visibility 9.7 miles    
Events Rain    
Averages and records for this station are not official NWS values.
T = Trace of Precipitation, MM = Missing Value Source: Averaged Metar Reports

Daily Weather History Graph

Daily Weather History Graph

Search for Another Location

Airport or City:

Astronomy

Oct. 11, 2019 Rise Set
Actual Time 6:53 AM CDT 6:18 PM CDT
Civil Twilight 6:27 AM CDT 6:44 PM CDT
Nautical Twilight 5:57 AM CDT 7:14 PM CDT
Astronomical Twilight 5:27 AM CDT 7:44 PM CDT
Moon 5:43 PM CDT (10/11) 4:38 AM CDT (10/11)
Length of Visible Light 12h 17m
Length of Day
11h 24m
Waxing Gibbous, 96% of the Moon is Illuminated
Oct 11
Waxing Gibbous
Oct 13
Full
Oct 21
Last Quarter
Oct 27
New
Nov 4
First Quarter

Hourly Weather History & Observations

Time (CDT) Temp. Windchill Dew Point Humidity Pressure Visibility Wind Dir Wind Speed Gust Speed Precip Events Conditions
12:15 AM 70.7 °F - 61.0 °F 71% 30.00 in 10.0 mi South 5.8 mph - N/A   Mostly Cloudy
12:35 AM 70.5 °F - 60.8 °F 71% 29.99 in 10.0 mi South 5.8 mph - N/A   Scattered Clouds
12:55 AM 70.5 °F - 60.8 °F 71% 29.99 in 10.0 mi South 5.8 mph - N/A   Clear
1:15 AM 70.2 °F - 60.8 °F 72% 29.99 in 10.0 mi SSW 5.8 mph - N/A   Clear
1:35 AM 69.8 °F - 60.8 °F 73% 29.98 in 10.0 mi South 5.8 mph - N/A   Clear
1:55 AM 70.2 °F - 60.8 °F 72% 29.98 in 10.0 mi South 6.9 mph - N/A   Mostly Cloudy
2:15 AM 70.7 °F - 60.3 °F 69% 29.98 in 10.0 mi South 5.8 mph - N/A   Mostly Cloudy
2:35 AM 70.9 °F - 59.9 °F 68% 29.97 in 10.0 mi South 5.8 mph - N/A   Mostly Cloudy
2:55 AM 71.1 °F - 59.9 °F 68% 29.96 in 10.0 mi South 6.9 mph - N/A   Overcast
3:15 AM 71.2 °F - 59.5 °F 66% 29.96 in 10.0 mi South 9.2 mph - N/A   Mostly Cloudy
3:35 AM 70.9 °F - 59.4 °F 67% 29.96 in 10.0 mi South 9.2 mph - N/A   Scattered Clouds
3:55 AM 71.6 °F - 59.0 °F 64% 29.96 in 10.0 mi South 9.2 mph - N/A   Scattered Clouds
4:15 AM 71.1 °F - 59.0 °F 66% 29.96 in 10.0 mi South 10.4 mph - N/A   Mostly Cloudy
4:35 AM 71.6 °F - 58.6 °F 64% 29.96 in 10.0 mi South 10.4 mph - N/A   Mostly Cloudy
4:55 AM 71.6 °F - 58.5 °F 63% 29.97 in 10.0 mi South 9.2 mph 16.1 mph N/A   Overcast
5:15 AM 71.6 °F - 58.1 °F 62% 29.97 in 10.0 mi South 11.5 mph 17.3 mph N/A   Overcast
5:35 AM 72.0 °F - 57.7 °F 61% 29.97 in 10.0 mi South 15.0 mph 21.9 mph N/A   Overcast
5:55 AM 68.9 °F - 59.5 °F 72% 29.98 in 5.0 mi South 10.4 mph - 0.03 in Rain Light Rain
6:15 AM 69.4 °F - 59.0 °F 69% 29.98 in 10.0 mi South 10.4 mph 17.3 mph N/A   Overcast
6:35 AM 69.1 °F - 59.0 °F 70% 29.98 in 10.0 mi South 9.2 mph 17.3 mph N/A   Overcast
6:55 AM 68.9 °F - 59.2 °F 71% 29.99 in 10.0 mi South 9.2 mph 16.1 mph N/A   Mostly Cloudy
7:15 AM 68.9 °F - 59.4 °F 72% 29.99 in 10.0 mi South 6.9 mph - N/A Rain Light Rain
7:55 AM 67.5 °F - 59.9 °F 77% 29.99 in 10.0 mi South 8.1 mph - N/A Rain Light Rain
8:15 AM 68.0 °F - 59.5 °F 74% 29.99 in 10.0 mi South 6.9 mph - N/A   Overcast
8:35 AM 68.9 °F - 59.7 °F 72% 29.99 in 10.0 mi South 8.1 mph - N/A   Overcast
8:55 AM 69.1 °F - 60.1 °F 73% 30.00 in 10.0 mi South 8.1 mph - N/A   Overcast
9:15 AM 69.8 °F - 59.9 °F 71% 30.00 in 10.0 mi South 8.1 mph - N/A   Overcast
9:35 AM 70.9 °F - 58.8 °F 66% 30.00 in 10.0 mi SSW 9.2 mph - N/A   Scattered Clouds
9:55 AM 70.9 °F - 58.1 °F 64% 30.01 in 10.0 mi SSW 9.2 mph 16.1 mph N/A   Scattered Clouds
10:15 AM 70.7 °F - 58.1 °F 64% 30.01 in 10.0 mi SSW 8.1 mph - N/A   Mostly Cloudy
10:35 AM 71.2 °F - 58.3 °F 64% 30.01 in 10.0 mi SSW 6.9 mph - N/A   Overcast
11:15 AM 70.5 °F - 57.9 °F 64% 30.01 in 10.0 mi SSW 12.7 mph 23.0 mph 0.01 in Rain Light Rain
11:35 AM 68.9 °F - 59.4 °F 72% 30.01 in 10.0 mi SSW 11.5 mph 17.3 mph 0.01 in Rain Light Rain
11:55 AM 68.5 °F - 60.6 °F 76% 30.00 in 10.0 mi SSW 9.2 mph - 0.02 in Rain Light Rain
12:15 PM 68.9 °F - 60.4 °F 74% 29.99 in 10.0 mi SSW 8.1 mph - N/A   Mostly Cloudy
12:35 PM 69.1 °F - 60.6 °F 74% 29.98 in 10.0 mi SSW 5.8 mph - N/A Rain Light Rain
12:55 PM 70.3 °F - 60.8 °F 72% 29.96 in 10.0 mi South 10.4 mph - N/A   Overcast
1:15 PM 70.3 °F - 59.5 °F 69% 29.96 in 10.0 mi South 10.4 mph - N/A   Overcast
1:35 PM 70.5 °F - 59.7 °F 69% 29.96 in 10.0 mi SSW 8.1 mph - N/A   Overcast
1:55 PM 69.3 °F - 60.4 °F 73% 29.96 in 10.0 mi SW 9.2 mph 16.1 mph 0.01 in Rain Light Rain
2:15 PM 69.6 °F - 61.9 °F 76% 29.95 in 10.0 mi SSW 9.2 mph - 0.01 in Rain Light Rain
2:35 PM 69.4 °F - 61.0 °F 74% 29.95 in 10.0 mi SW 9.2 mph - 0.01 in   Overcast
2:55 PM 69.1 °F - 61.5 °F 77% 29.96 in 10.0 mi SW 10.4 mph 17.3 mph 0.01 in Rain Light Rain
3:15 PM 69.8 °F - 62.4 °F 77% 29.96 in 10.0 mi SW 10.4 mph - N/A   Overcast
3:35 PM 69.6 °F - 62.4 °F 78% 29.96 in 10.0 mi West 8.1 mph - N/A Rain Light Rain
3:55 PM 58.8 °F - 52.7 °F 80% 29.98 in 10.0 mi NW 15.0 mph 21.9 mph 0.01 in Rain Light Rain
4:15 PM 55.2 °F - 49.6 °F 81% 30.00 in 10.0 mi NW 13.8 mph 21.9 mph N/A Rain Light Rain
4:35 PM 53.1 °F - 47.8 °F 82% 30.02 in 10.0 mi NW 11.5 mph 23.0 mph 0.01 in Rain Light Rain
4:55 PM 52.7 °F - 47.3 °F 82% 30.04 in 10.0 mi NW 13.8 mph 19.6 mph 0.01 in   Overcast
5:15 PM 52.0 °F - 46.8 °F 82% 30.06 in 10.0 mi NW 9.2 mph - N/A   Overcast
5:35 PM 50.9 °F - 45.7 °F 82% 30.07 in 5.0 mi NW 10.4 mph 16.1 mph 0.03 in Rain Rain
5:55 PM 50.4 °F - 45.7 °F 84% 30.08 in 5.0 mi NW 11.5 mph 18.4 mph 0.04 in   Heavy Drizzle
6:15 PM 49.1 °F - 43.7 °F 82% 30.09 in 10.0 mi NNW 12.7 mph 23.0 mph N/A   Drizzle
6:35 PM 48.4 °F - 43.3 °F 83% 30.10 in 7.0 mi NW 9.2 mph 17.3 mph N/A   Drizzle
6:55 PM 48.2 °F - 43.2 °F 83% 30.11 in 7.0 mi NW 9.2 mph - N/A   Light Drizzle
7:15 PM 48.2 °F - 43.2 °F 83% 30.11 in 10.0 mi NNW 5.8 mph 16.1 mph N/A   Overcast
7:35 PM 48.2 °F - 42.8 °F 82% 30.13 in 10.0 mi NNW 11.5 mph 16.1 mph N/A   Overcast
7:55 PM 47.5 °F - 42.8 °F 84% 30.13 in 7.0 mi NNW 10.4 mph - N/A   Overcast
8:15 PM 47.1 °F - 42.3 °F 83% 30.13 in 10.0 mi North 10.4 mph - N/A   Overcast
8:35 PM 46.8 °F - 41.9 °F 83% 30.14 in 10.0 mi NNW 9.2 mph - N/A   Overcast
8:55 PM 46.9 °F - 41.5 °F 81% 30.16 in 10.0 mi NW 8.1 mph - N/A   Overcast
9:15 PM 46.8 °F - 40.8 °F 80% 30.17 in 10.0 mi NNW 6.9 mph - N/A   Overcast
9:35 PM 46.9 °F - 40.5 °F 78% 30.17 in 10.0 mi NNW 9.2 mph - N/A   Overcast
9:55 PM 46.8 °F - 40.3 °F 78% 30.17 in 10.0 mi NNW 4.6 mph - N/A   Overcast
10:15 PM 46.8 °F - 40.3 °F 78% 30.18 in 10.0 mi NNW 5.8 mph - N/A   Overcast
10:35 PM 46.8 °F - 40.1 °F 78% 30.19 in 10.0 mi NNW 5.8 mph - N/A   Overcast
10:55 PM 46.6 °F - 39.4 °F 76% 30.19 in 10.0 mi NNW 5.8 mph - N/A   Overcast
11:15 PM 46.4 °F 45.2 °F 39.4 °F 77% 30.20 in 10.0 mi NW 3.5 mph - N/A   Overcast
11:35 PM 45.5 °F 41.3 °F 38.1 °F 75% 30.20 in 10.0 mi NNW 8.1 mph - N/A   Mostly Cloudy
11:55 PM 44.8 °F 41.0 °F 37.0 °F 74% 30.20 in 10.0 mi NNW 6.9 mph - N/A   Clear